Theta_e
314 313 313 313 313 313 313 312 313 313 314 317 324 331 336 338 338 340 338 339 343 345 352 353 355 355 355 348 347 349 350 355 354 353 352 345 348 347 348 345 346 347 344 346 347
315 314 313 313 313 313 313 313 313 313 314 317 323 330 335 338 339 340 337 336 341 347 353 356 355 355 351 347 351 349 353 354 351 350 348 347 348 348 347 347 346 347 345 346 348
318 315 314 314 313 313 313 313 313 313 314 317 322 329 333 336 336 339 337 336 339 348 354 353 352 348 354 348 348 351 351 350 351 350 345 346 346 348 346 347 346 345 346 347 348
320 318 315 314 313 313 313 313 313 313 314 317 322 328 333 335 338 337 337 338 338 350 352 354 354 350 355 353 350 347 350 349 345 349 345 343 346 348 347 347 347 341 345 347 348
321 320 316 314 314 313 313 312 313 314 315 317 321 328 333 334 337 336 336 340 346 350 354 351 352 352 351 352 351 349 350 349 349 347 349 343 346 348 348 348 346 344 346 347 347
321 321 318 315 314 313 313 313 313 314 315 316 321 327 332 333 336 338 338 343 350 353 350 350 351 351 352 351 347 346 347 347 348 350 350 346 347 348 348 347 344 345 345 347 346
321 321 319 315 314 313 313 313 314 314 315 316 320 326 330 333 336 339 340 344 351 354 352 351 352 352 352 350 347 347 347 345 344 347 346 347 349 349 347 346 344 344 345 346 345
320 322 319 315 314 313 313 314 314 314 315 316 320 325 335 336 337 341 343 344 347 350 351 351 350 350 348 349 348 347 347 349 345 346 346 345 348 346 346 345 344 344 344 345 346
320 322 320 315 313 313 313 314 314 314 315 317 323 329 336 336 337 343 344 347 350 350 350 350 350 349 345 350 352 349 352 352 350 346 346 347 349 346 346 344 344 344 344 344 344
321 322 319 314 313 313 313 314 314 315 316 321 328 330 334 340 340 345 348 348 348 348 349 347 346 346 343 346 353 354 353 348 351 348 349 347 345 345 344 344 344 344 344 344 345
322 323 318 313 313 313 313 314 319 323 318 329 331 333 332 338 340 345 346 347 347 345 345 344 344 350 344 344 349 352 352 351 347 348 350 350 348 345 345 344 343 344 344 344 344
323 322 316 314 314 313 315 321 324 323 323 326 325 331 333 336 341 346 344 347 347 345 345 341 345 345 347 347 349 351 353 351 349 349 349 348 351 347 345 345 344 344 344 344 344
324 321 315 314 314 316 320 323 325 325 321 324 326 327 333 335 340 343 343 346 345 344 346 344 344 346 348 349 350 347 349 347 345 349 350 350 348 350 348 347 346 345 345 345 345
324 319 314 315 317 318 324 324 325 324 320 325 327 329 337 337 341 344 344 346 345 344 344 344 345 349 348 350 347 350 348 349 348 350 351 348 351 347 347 349 349 348 349 347 345
323 317 315 318 319 325 324 324 323 323 328 327 330 333 335 342 345 345 346 347 342 345 344 349 348 348 349 349 346 347 347 347 348 348 350 352 350 346 345 348 346 347 349 349 348
322 315 315 319 323 324 324 323 321 319 330 329 336 339 341 345 345 347 347 347 345 345 347 345 344 346 347 346 347 346 346 345 342 345 350 347 351 351 343 346 343 344 345 347 349
321 315 317 321 325 323 324 323 316 321 322 330 331 343 342 345 345 346 347 348 347 349 345 350 349 347 346 348 345 344 342 345 346 350 351 344 349 346 339 341 342 345 347 347 348
320 316 320 325 323 324 324 318 323 323 322 324 331 337 346 344 344 345 346 348 344 343 346 349 348 344 340 344 348 345 341 340 348 346 344 344 350 343 343 337 343 345 346 348 348
318 317 323 325 323 323 325 317 320 321 322 322 325 338 334 324 334 344 344 345 344 343 349 347 348 339 340 339 336 340 340 334 336 327 337 336 340 336 341 338 344 342 343 342 344
321 317 321 324 320 323 317 318 321 319 321 321 325 327 330 322 324 329 337 341 345 342 342 344 350 333 336 336 333 334 331 332 323 334 331 324 332 337 341 340 339 345 343 341 343
332 328 320 321 322 322 314 316 319 323 323 323 320 321 321 323 322 322 324 325 328 328 338 328 330 333 326 332 322 323 321 321 321 319 327 324 323 327 339 340 338 341 349 344 342
331 320 322 321 320 312 317 318 323 325 324 323 320 322 323 322 323 323 325 323 324 324 324 321 315 320 323 319 318 322 322 316 320 322 316 317 322 334 333 333 335 342 348 349 348
330 325 325 324 318 317 318 324 325 324 324 323 324 323 322 322 324 325 326 327 325 321 322 318 316 319 321 320 320 323 322 317 313 313 319 322 323 333 341 339 337 345 347 347 348
335 321 324 324 321 322 325 327 329 329 328 328 327 325 323 325 324 329 327 327 326 325 320 319 312 318 321 323 320 325 326 324 320 321 321 321 325 325 337 341 341 344 345 346 344
333 327 326 321 323 326 324 325 329 331 328 328 329 327 327 329 328 329 327 326 327 326 323 319 323 319 320 318 319 323 325 325 321 322 325 325 321 324 329 339 340 341 343 343 343
331 329 330 329 330 325 323 326 327 328 329 329 329 330 328 329 327 329 328 326 328 325 325 317 324 320 327 324 323 326 324 324 324 325 320 321 330 330 338 338 340 340 341 343 343
327 330 331 328 326 325 326 326 326 325 328 328 328 328 330 329 330 330 329 329 327 326 323 321 319 321 324 323 324 327 326 325 326 327 332 337 331 339 341 338 338 338 338 340 341
Wind_Speed
9 8 7 6 5 4 2 1 2 4 5 6 6 6 6 4 3 3 1 5 6 6 5 3 3 4 3 5 6 5 4 2 2 3 2 14 4 10 6 19 4 3 16 26 24
9 8 7 6 5 3 2 0 2 4 5 6 6 5 4 3 4 5 6 8 8 8 5 4 1 1 4 4 4 4 3 1 3 2 2 14 13 13 6 11 5 11 22 25 25
10 8 7 5 4 3 1 1 3 4 5 6 5 5 3 2 2 2 8 8 6 8 5 3 3 1 2 3 1 2 2 3 3 3 6 13 9 4 16 3 12 28 30 27 25
10 8 6 5 4 2 1 2 4 5 6 6 6 5 3 2 2 1 7 9 7 8 3 2 1 1 3 2 2 2 3 2 5 4 7 9 18 8 13 3 14 23 29 30 27
11 8 7 5 3 2 1 3 4 5 7 7 6 5 3 1 2 2 9 10 9 6 4 3 2 1 2 2 5 2 2 3 13 6 2 12 11 5 9 5 19 25 27 28 27
11 8 6 4 3 1 2 4 5 6 7 7 7 5 3 1 2 2 8 9 11 10 6 2 2 3 1 3 3 2 12 10 4 9 7 7 2 5 7 16 22 28 29 28 26
11 8 5 3 2 0 3 4 5 7 7 7 6 5 3 1 1 5 6 7 8 8 5 7 2 1 3 3 3 3 6 7 10 4 3 9 2 2 15 25 28 27 28 28 26
10 7 4 3 1 2 4 5 6 7 7 7 6 4 2 2 3 7 8 8 9 6 0 4 3 2 4 3 3 5 5 3 3 6 2 4 4 4 23 27 28 26 27 27 28
8 5 3 1 1 4 5 6 7 7 7 6 5 2 2 3 5 8 6 3 4 3 1 2 1 2 4 2 4 6 2 1 4 4 2 1 3 11 25 24 24 28 30 29 28
6 3 2 1 3 6 8 9 7 6 7 5 2 1 4 1 6 9 10 6 3 2 4 1 3 3 3 3 3 3 2 2 0 3 5 5 5 9 25 27 26 28 31 28 31
3 2 3 4 7 9 11 11 6 3 7 3 2 0 2 4 8 6 7 4 5 7 4 6 5 1 5 3 7 4 4 4 4 4 2 4 7 11 21 21 20 29 32 33 30
1 3 5 7 9 11 10 3 6 3 5 8 12 10 5 4 6 10 6 3 3 2 1 5 1 2 6 4 3 4 2 3 3 2 4 6 11 10 12 22 28 28 32 34 33
2 5 7 9 10 11 7 6 1 6 2 2 5 7 6 9 5 10 11 5 4 2 1 3 3 6 3 2 2 2 4 4 7 3 3 4 7 3 6 16 22 27 32 35 36
4 7 9 10 8 8 4 7 6 3 4 2 3 4 9 7 0 5 13 5 4 3 3 1 1 3 2 3 2 2 6 4 2 1 3 4 5 5 2 7 10 20 22 30 34
6 9 12 12 11 6 5 7 2 3 4 2 2 6 10 10 7 9 12 8 7 5 4 4 5 4 2 5 5 3 6 3 2 2 5 2 2 8 0 5 10 15 24 23 25
7 10 13 10 7 4 6 3 2 5 1 1 3 4 5 2 1 5 4 6 6 4 2 5 3 3 7 4 4 5 4 6 5 3 2 2 4 8 3 3 2 7 24 28 24
7 11 12 10 5 4 5 1 5 4 4 4 3 2 3 1 2 3 4 4 4 2 3 1 4 4 6 1 3 4 5 3 4 3 5 4 1 10 6 5 4 8 16 21 25
7 11 13 8 4 3 1 5 1 1 4 2 4 4 6 3 4 4 4 2 3 5 2 0 6 7 5 6 5 3 6 5 5 4 5 3 6 6 4 13 9 3 8 12 15
7 11 12 7 2 1 1 3 6 5 2 2 3 5 2 3 3 1 6 4 7 9 8 4 6 1 2 3 4 2 4 3 4 3 2 3 7 9 3 4 3 3 5 7 9
6 10 11 8 1 1 5 4 3 4 2 2 3 3 6 3 5 3 1 3 4 11 7 5 4 1 1 3 1 5 4 1 3 2 4 4 5 5 8 7 3 4 7 7 5
7 6 8 10 0 2 2 5 5 8 4 0 3 3 3 2 2 4 6 4 1 5 7 5 3 6 1 3 6 1 0 5 4 4 4 2 6 7 8 9 8 9 8 8 8
4 3 10 10 2 2 1 4 4 5 2 1 4 3 4 3 2 1 2 2 10 6 5 4 5 4 2 4 2 1 3 4 4 5 2 4 6 4 8 14 13 13 8 6 5
4 6 10 7 3 3 5 4 2 4 4 3 3 2 2 2 2 2 4 6 11 3 4 5 2 3 8 6 4 1 2 5 5 3 5 3 6 0 5 8 13 20 17 12 8
3 3 3 5 2 3 3 3 3 3 5 6 3 3 4 5 5 1 5 4 9 5 5 4 3 6 7 6 3 2 3 3 4 3 3 6 7 9 6 8 9 10 13 11 11
3 1 2 1 2 2 0 3 3 3 3 8 4 3 2 2 2 1 2 5 4 8 4 4 3 3 5 6 4 5 7 5 7 7 6 8 8 13 8 14 21 19 17 15 9
3 3 3 2 2 1 2 2 2 3 1 2 4 1 2 5 7 7 3 2 5 4 2 3 2 5 4 5 7 6 9 9 7 4 8 7 8 3 9 11 18 20 20 18 16
6 4 1 2 1 3 2 0 1 2 1 4 2 2 2 5 10 7 9 5 6 5 3 3 6 3 6 3 5 5 7 5 4 4 5 5 8 2 4 9 9 12 16 18 22
Wind_Direction
356 354 356 354 360 1 5 73 154 152 155 165 168 172 187 206 229 252 359 110 135 122 128 95 72 61 31 41 36 32 55 45 25 141 139 161 125 153 123 143 168 139 162 159 160
352 350 352 354 356 354 355 120 158 158 160 167 170 176 188 219 261 261 158 135 136 162 135 45 91 115 61 57 33 57 81 326 278 197 168 166 137 158 127 156 110 113 153 162 162
347 345 348 351 350 348 337 174 160 161 163 164 168 176 191 227 291 79 179 164 151 163 142 76 92 5 84 140 130 103 113 245 270 342 116 141 139 178 144 208 175 153 160 168 169
343 340 343 347 347 342 294 179 165 166 164 163 168 171 177 173 115 20 180 186 177 152 130 105 358 83 148 124 116 94 226 264 330 137 130 160 157 146 169 273 183 168 164 168 176
339 337 338 343 341 331 228 172 168 168 166 165 165 170 172 244 30 91 155 162 157 151 134 85 70 86 27 100 117 65 305 245 244 244 198 159 184 176 195 142 163 168 171 176 180
334 333 335 338 334 314 185 173 168 168 170 168 168 174 177 22 56 136 156 156 145 142 144 52 36 16 26 73 97 231 260 258 286 251 221 180 184 141 185 166 167 173 179 183 187
330 329 329 328 328 195 166 167 169 167 168 171 173 186 209 48 358 166 158 145 157 137 90 19 78 355 330 107 3 6 44 43 35 8 112 131 95 225 183 174 169 180 185 192 196
326 322 321 316 316 154 158 163 165 161 161 166 176 190 233 236 178 167 173 176 179 188 250 34 42 10 25 358 33 33 55 47 330 28 134 165 241 188 171 171 179 182 190 199 207
323 315 302 292 172 147 150 152 150 150 155 161 170 182 227 253 194 176 177 126 183 212 32 232 250 46 1 42 57 19 310 73 6 3 228 92 215 196 178 181 185 195 202 199 208
320 294 248 177 154 142 139 137 136 144 152 148 175 223 234 132 167 183 166 120 61 129 138 62 70 79 50 83 188 173 32 1 227 24 30 352 243 189 187 186 192 200 208 215 213
315 238 191 157 149 144 144 128 127 132 207 200 149 125 74 173 175 168 182 220 14 48 31 15 52 237 226 38 53 12 58 346 302 324 173 254 248 218 195 200 197 203 213 217 223
241 191 170 154 153 151 145 84 87 63 311 250 242 233 225 144 167 167 210 156 105 149 201 25 270 354 21 34 41 74 77 256 227 305 178 227 250 233 190 211 206 209 211 221 224
158 176 161 157 153 147 112 87 305 323 179 277 241 237 230 206 174 190 191 172 92 80 60 134 305 105 166 85 108 200 188 212 199 257 205 308 275 218 225 206 214 220 221 222 227
159 169 158 149 143 137 113 353 332 187 78 264 262 196 166 161 279 192 189 173 50 130 106 133 252 199 288 144 204 336 185 275 221 281 268 15 285 293 218 221 209 198 200 217 225
159 169 159 147 137 105 1 349 77 136 79 179 138 151 157 159 146 181 196 191 150 168 103 272 204 194 240 246 181 287 66 12 260 72 348 29 69 267 55 244 224 205 211 211 215
163 170 168 155 122 57 8 50 87 43 102 132 118 138 122 213 213 127 152 178 129 123 83 242 252 221 202 267 175 67 53 34 41 64 308 311 167 285 261 238 274 208 217 216 208
162 167 165 143 113 30 32 38 37 115 346 169 142 140 149 258 317 150 169 155 169 81 6 226 240 274 183 242 67 111 68 327 355 0 234 334 139 250 295 286 250 234 213 211 209
153 161 155 133 102 52 35 49 80 282 233 19 104 73 171 181 235 174 111 235 182 99 93 285 313 193 186 199 186 156 158 161 226 212 262 68 235 257 257 309 321 269 215 205 200
137 155 159 148 136 41 56 76 205 206 275 129 75 96 272 290 213 73 191 222 208 168 181 172 261 162 176 147 157 148 211 215 114 31 40 233 288 299 309 309 5 319 209 176 174
123 150 170 175 187 341 72 238 253 223 302 115 119 135 192 222 153 165 195 253 244 188 172 217 297 22 136 141 101 153 171 9 17 274 287 297 284 252 319 283 225 248 251 224 203
124 125 173 178 239 334 140 230 263 260 234 62 142 127 204 227 147 187 205 295 247 5 143 140 129 289 43 208 170 154 310 57 119 136 188 256 277 219 246 260 222 210 209 236 251
120 69 151 159 66 46 196 210 315 298 59 94 102 105 190 149 114 209 104 252 339 175 172 191 147 197 195 313 336 142 124 118 116 281 205 178 268 5 302 286 216 214 211 212 221
89 95 157 167 112 319 291 292 270 324 31 48 61 49 68 88 119 23 342 328 11 106 155 185 14 34 349 353 2 122 176 109 109 94 222 161 268 213 321 318 233 195 208 213 228
106 75 135 200 124 135 355 306 331 41 48 59 54 73 78 37 17 75 348 333 358 54 70 99 116 154 192 212 172 291 235 195 139 132 216 232 275 294 251 238 239 238 219 224 226
68 97 132 218 314 29 188 320 338 17 56 37 44 58 112 102 42 14 317 329 335 11 49 91 171 179 243 236 196 227 237 213 198 214 178 251 215 258 235 213 210 219 223 220 222
88 105 113 92 320 128 345 360 15 326 82 354 108 119 127 159 187 207 188 207 245 316 54 20 236 170 274 239 218 249 265 250 241 251 260 270 274 262 296 213 200 206 214 218 220
74 79 96 356 37 104 240 281 344 271 44 86 172 127 253 235 215 221 214 227 224 195 192 158 143 128 250 314 341 282 239 225 244 206 193 246 249 303 279 227 222 218 210 220 233